This is the latest recevied weather packets stored in our database for station/object NR0A-4. If no packets are shown the sender has not sent any weather packets the latest 10 day(s).
| Time | Temp. | Humidity | Pressure | Rain* | Wind** | Luminosity | Snow |
|---|---|---|---|---|---|---|---|
| 1777493105 | 16.11° C | 49% | 1018.3 hPa | 0 mm | - | 341 W/m² | - |
| 1777492804 | 15.56° C | 51% | 1018.2 hPa | 0 mm | - | 1058 W/m² | - |
| 1777492505 | 15° C | 50% | 1018.3 hPa | 0 mm | - | 390 W/m² | - |
| 1777492205 | 15° C | 48% | 1018.3 hPa | 0 mm | - | 403 W/m² | - |
| 1777491904 | 15° C | 45% | 1018.4 hPa | 0 mm | - | 381 W/m² | - |
| 1777491605 | 15.56° C | 44% | 1018.4 hPa | 0 mm | - | 253 W/m² | - |
| 1777491304 | 15.56° C | 45% | 1018.5 hPa | 0 mm | - | 353 W/m² | - |
| 1777491005 | 15.56° C | 48% | 1018.5 hPa | 0 mm | - | 780 W/m² | - |
| 1777490704 | 15° C | 45% | 1018.6 hPa | 0 mm | - | 332 W/m² | - |
| 1777490405 | 15° C | 48% | 1018.6 hPa | 0 mm | - | 496 W/m² | - |
| 1777490104 | 15° C | 47% | 1018.7 hPa | 0 mm | - | 357 W/m² | - |
| 1777489804 | 15° C | 47% | 1018.7 hPa | 0 mm | - | 350 W/m² | - |
| 1777489504 | 15° C | 44% | 1018.7 hPa | 0 mm | - | 417 W/m² | - |
| 1777489204 | 15° C | 49% | 1018.8 hPa | 0 mm | - | 1009 W/m² | - |
| 1777488904 | 15° C | 50% | 1018.9 hPa | 0 mm | - | 926 W/m² | - |
| 1777488605 | 14.44° C | 48% | 1018.8 hPa | 0 mm | - | 947 W/m² | - |
| 1777488304 | 14.44° C | 51% | 1019 hPa | 0 mm | - | 916 W/m² | - |
| 1777488005 | 13.89° C | 55% | 1019 hPa | 0 mm | - | 979 W/m² | - |
| 1777487704 | 13.89° C | 50% | 1019.1 hPa | 0 mm | - | 976 W/m² | - |
| 1777487405 | 13.89° C | 54% | 1019.2 hPa | 0 mm | - | 962 W/m² | - |
| 1777487104 | 13.89° C | 50% | 1019.3 hPa | 0 mm | - | 211 W/m² | - |
| 1777486804 | 13.89° C | 50% | 1019.3 hPa | 0 mm | - | 1009 W/m² | - |
| 1777486505 | 13.89° C | 53% | 1019.4 hPa | 0 mm | - | 315 W/m² | - |
| 1777486205 | 13.89° C | 55% | 1019.5 hPa | 0 mm | - | 1039 W/m² | - |
| 1777485904 | 13.89° C | 51% | 1019.5 hPa | 0.25 mm | - | 953 W/m² | - |
* Rain latest hour (hover to see other rain measurements)
** Current wind speed in m/s (hover to see current wind gust speed)